Content
SEND FEEDBACK

Daily
Averages
Monthly
Summary
Canada

QUEBEC CITY, QUEBEC


Home > North America > Canada > Quebec
Elevation: 239 feet     Latitude: 46 48N     Longitude: 071 23W

WEATHER
 
SELECT A DAY
Number of Records: 192,552;   Date Range: 6/30/96 - 8/27/14
 
SHARE

PRINT THIS DATA

[ ← Previous Day ]
WEATHER ALMANAC - MARCH 20, 2013
[ Next Day → ]
[ °C ]   °F
Weather ElementAverageHighLow
Temperature23.2 °F26.6 °F (4:00 pm)21.2 °F (1:00 am)
Dewpoint12.8 °F23 °F (4:00 pm) (7:00 pm)
Humidity84.7 %93 % (1:00 am)67 % (2:00 pm)
Wind Speed10.6 mph17.3 mph (3:34 pm)
Wind Gust19.6 mph (3:04 am)
Weather ElementAverage
Visibility3 mi
Wind DirectionSSE (147.6 °)

Weather ElementTotal
Precipitation---
Heating Degree Days41.1 (Base 65)
Averaged from 46 records on March 20, 2013
WEATHER CONDITIONS BREAKOUT
WIND DIRECTION BREAKOUT
WEATHER BY HOUR - MARCH 20, 2013
[ °C ]   °F
Local TimeTemperatureDewpointHumidityBarometerVisibilityWind DirectionWind SpeedGust SpeedPrecipitationEventsConditions
1:00 AM21.2 °F19.4 °F93 %29.82 in1.0 miENE (60°)10.4 mph17.3 mphSnowLight Snow
1:29 AM21.2 °F0.0 °F1.8 miNE (50°)9.2 mphSnowLight Snow
2:00 AM23.0 °F22.0 °F92 %29.78 inENE (70°)8.1 mph
2:00 AM23.0 °F19.4 °F86 %29.78 in3.0 miNE (50°)11.5 mphSnowLight Snow
3:00 AM23.0 °F19.4 °F86 %29.75 in3.0 miNE (50°)12.7 mphSnowLight Snow
3:04 AM23.0 °F0.0 °F6.0 miNE (50°)11.5 mph19.6 mphSnowLight Snow
4:00 AM21.2 °F19.4 °F93 %29.73 in3.0 miNE (40°)8.1 mphSnowLight Snow
5:00 AM22.0 °F20.0 °F90 %29.70 inENE (70°)6.9 mph
5:00 AM23.0 °F19.4 °F86 %29.71 in3.0 miNE (40°)12.7 mphSnowLight Snow
6:00 AM21.2 °F17.6 °F86 %29.70 in3.0 miENE (70°)12.7 mph18.4 mphSnowLight Snow
6:47 AM21.2 °F0.0 °F1.2 miENE (60°)10.4 mph17.3 mphSnowLight Snow
7:00 AM21.2 °F19.4 °F93 %29.70 in1.2 miENE (60°)12.7 mphSnowLight Snow
7:36 AM21.2 °F0.0 °F1.0 miENE (60°)11.5 mphSnowLight Snow
8:00 AM21.2 °F17.6 °F86 %29.69 in1.2 miEast (80°)8.1 mphSnowLight Snow
8:38 AM21.2 °F0.0 °F1.0 miEast (80°)9.2 mph17.3 mphSnowLight Snow
9:00 AM21.2 °F17.6 °F86 %29.68 in1.0 miENE (70°)9.2 mphSnowLight Snow
9:37 AM21.2 °F0.0 °F1.8 miENE (60°)5.8 mphSnowLight Snow
10:00 AM21.2 °F15.8 °F80 %29.68 in1.8 miNE (40°)9.2 mphSnowLight Snow
10:21 AM21.2 °F0.0 °F2.0 miNE (50°)10.4 mphSnowLight Snow
10:32 AM21.2 °F0.0 °F1.5 miNE (40°)11.5 mphSnowLight Snow
11:00 AM23.0 °F18.0 °F75 %29.66 inNNE (20°)4.6 mph
11:00 AM23.0 °F17.6 °F80 %29.66 in1.5 miNNE (30°)6.9 mphSnowLight Snow
11:35 AM23.0 °F0.0 °F1.5 miNNW (340°)4.6 mphSnowLight Snow
12:00 PM24.8 °F15.8 °F69 %29.65 in8.0 miCalmOvercast
1:00 PM24.8 °F15.8 °F69 %29.64 in10.0 miSW (220°)8.1 mphSnowLight Snow Showers
2:00 PM26.0 °F19.0 °F67 %29.60 inWest (260°)9.2 mph
2:00 PM24.8 °F19.4 °F80 %29.62 in6.0 miWSW (240°)11.5 mphSnowLight Snow Showers
2:20 PM24.8 °F0.0 °F2.5 miSW (230°)12.7 mphSnowLight Snow Showers
2:28 PM24.8 °F0.0 °F1.2 miSW (220°)12.7 mphSnowLight Snow Showers
3:00 PM24.8 °F19.4 °F80 %29.60 in4.0 miSW (230°)12.7 mphSnowLight Snow Showers
3:34 PM24.8 °F0.0 °F1.2 miSW (230°)17.3 mphSnowLight Snow Showers
3:45 PM24.8 °F0.0 °F4.0 miSW (230°)15.0 mphSnowLight Snow Showers
4:00 PM26.6 °F23.0 °F86 %29.59 in4.0 miSW (230°)13.8 mphSnowLight Snow Showers
4:26 PM26.6 °F0.0 °F1.5 miWSW (240°)15.0 mphSnowLight Snow Showers
4:40 PM24.8 °F0.0 °F4.0 miWSW (240°)15.0 mphSnowLight Snow Showers
5:00 PM24.8 °F21.2 °F86 %29.59 in3.0 miWSW (240°)15.0 mphSnowLight Snow Showers
5:00 PM26.0 °F23.0 °F82 %29.59 inWSW (240°)11.5 mph
6:00 PM24.8 °F21.2 °F86 %29.60 in3.0 miWSW (250°)15.0 mphSnowLight Snow Showers
7:00 PM24.8 °F21.2 °F86 %29.62 in3.0 miWest (260°)10.4 mphSnowLight Snow Showers
8:00 PM24.0 °F23.0 °F92 %29.61 inWSW (250°)8.1 mph
8:00 PM23.0 °F21.2 °F93 %29.61 in2.0 miWSW (250°)9.2 mphSnowLight Snow Showers
9:00 PM23.0 °F21.2 °F93 %29.60 in5.0 miWest (260°)6.9 mphSnowLight Snow Showers
10:00 PM23.0 °F19.4 °F86 %29.58 in5.0 miSW (220°)10.4 mphSnowLight Snow
11:00 PM23.0 °F21.0 °F88 %29.57 inWSW (250°)11.5 mph
11:00 PM23.0 °F19.4 °F86 %29.57 in8.0 miSW (230°)13.8 mphMostly Cloudy
11:20 PM23.0 °F0.0 °F3.0 miSW (230°)12.7 mphSnowLight Snow Showers
Hourly data recorded from CYQB, located miles away from Quebec City, Quebec







STORIES FROM OUR PARTNERS